Über HERMES Pathfinder H4
Group: 3 satellites
Beschreibung wird geladen...
Live-Position
3D-Globus wird geladen...
Nächste Überflüge
Höhenverlauf
Altitude vs Time
uPlot chart will show altitude changes over time
Zweizeiliger Elementsatz
1 63833U 25052BP 25340.66708252 .00029143 00000-0 12442-2 0 9991
2 63833 97.4091 231.2361 0004089 136.2001 223.9561 15.22839888 40575
Epoch: 6. Dez. 2025 •
Age: 18 hours
Aktueller Status
Höhe 497.3 km
Geschwindigkeit 7.62 km/s
Subsatellitenpunkt 9.19°N,
174.81°W
Startdatum 15. März 2025
Alter 0.7 years
Typ other
Technische Details
Klassifizierung Payload
Masse 5.00 kg
Trockenmasse 5.00 kg
Gesamtmasse 5.00 kg
Länge 0.30 m
Durchmesser 0.10 m
Spannweite 0.30 m
Form Box
Hersteller MILANP/INAFI
Bus-Typ Cubesat 3U
Phasenstatus In Orbit
Besitzer/Staat ASI/I
Große Konstellationen
Loading constellations...